TimeCST,TemperatureF,Dew PointF,Humidity,Sea Level PressureIn,VisibilityMPH,Wind Direction,Wind SpeedMPH,Gust SpeedMPH,PrecipitationIn,Events,Conditions,WindDirDegrees,DateUTC
12:51 AM,55.9,41.0,57,30.35,10.0,NNE,5.8,-,N/A,,Overcast,20,2013-11-08 06:51:00
1:51 AM,55.9,39.9,55,30.33,10.0,NE,3.5,-,N/A,,Overcast,50,2013-11-08 07:51:00
2:51 AM,55.0,41.0,59,30.31,10.0,NNE,3.5,-,N/A,,Overcast,20,2013-11-08 08:51:00
3:51 AM,55.0,41.0,59,30.31,10.0,Calm,Calm,-,N/A,,Overcast,0,2013-11-08 09:51:00
4:51 AM,54.0,42.1,64,30.30,10.0,NNE,3.5,-,N/A,,Overcast,30,2013-11-08 10:51:00
5:51 AM,53.1,42.1,66,30.31,10.0,NE,4.6,-,N/A,,Overcast,50,2013-11-08 11:51:00
6:51 AM,53.1,41.0,64,30.32,10.0,NE,3.5,-,N/A,,Mostly Cloudy,50,2013-11-08 12:51:00
7:51 AM,54.0,41.0,62,30.33,10.0,ENE,4.6,-,N/A,,Mostly Cloudy,60,2013-11-08 13:51:00
8:51 AM,57.0,39.9,53,30.34,10.0,ENE,6.9,-,N/A,,Mostly Cloudy,70,2013-11-08 14:51:00
9:51 AM,60.1,37.9,44,30.34,10.0,ENE,9.2,-,N/A,,Mostly Cloudy,70,2013-11-08 15:51:00
10:51 AM,61.0,34.0,36,30.33,10.0,ESE,9.2,-,N/A,,Mostly Cloudy,120,2013-11-08 16:51:00
11:51 AM,64.0,33.1,31,30.29,10.0,ESE,13.8,-,N/A,,Mostly Cloudy,110,2013-11-08 17:51:00
12:51 PM,64.0,36.0,35,30.26,10.0,East,8.1,-,N/A,,Overcast,90,2013-11-08 18:51:00
1:51 PM,64.9,36.0,34,30.22,10.0,SE,5.8,-,N/A,,Mostly Cloudy,130,2013-11-08 19:51:00
2:51 PM,64.0,37.0,37,30.20,10.0,East,6.9,-,N/A,,Mostly Cloudy,100,2013-11-08 20:51:00
3:51 PM,64.9,39.0,39,30.18,10.0,East,6.9,-,N/A,,Mostly Cloudy,90,2013-11-08 21:51:00
4:51 PM,63.0,39.0,41,30.17,10.0,SE,5.8,-,N/A,,Mostly Cloudy,130,2013-11-08 22:51:00
5:51 PM,62.1,41.0,46,30.18,10.0,East,3.5,-,N/A,,Overcast,100,2013-11-08 23:51:00
6:51 PM,62.1,43.0,50,30.17,10.0,East,3.5,-,0.00,Rain,Light Rain,90,2013-11-09 00:51:00
7:51 PM,60.1,45.0,57,30.17,10.0,East,3.5,-,0.00,,Overcast,90,2013-11-09 01:51:00
8:51 PM,60.1,44.1,55,30.17,10.0,Calm,Calm,-,N/A,,Overcast,0,2013-11-09 02:51:00
9:51 PM,60.1,46.0,60,30.17,10.0,East,3.5,-,N/A,,Overcast,100,2013-11-09 03:51:00
10:51 PM,59.0,48.0,67,30.16,10.0,ESE,5.8,-,N/A,,Overcast,120,2013-11-09 04:51:00
11:51 PM,59.0,48.0,67,30.14,10.0,SE,6.9,-,N/A,,Overcast,130,2013-11-09 05:51:00